[[[{"header":{"parameterUnit":"kt","parameterCategory":2,"dx":1,"dy":1,"la1":30.253999710083008,"la2":30.299108505249023,"lo1":-89.0895004272461,"lo2":-89.04439544677734,"nx":28,"ny":28,"refTime":"2022-10-28T21:00:00:Z","depth":"0","parameterNumber":2,"parameterNumberName":"U-component_of_CURRENTS"},"data":[0.3189,0.3158,0.3144,0.3061,0.303,0.2882,0.2831,0.2734,0.2681,0.246,0.2262,0.2224,0.1894,0.1271,0.0757,0.0737,0.058,0.0458,0.0615,0.0945,0.1042,0.1135,0.0911,0.0205,0.0203,-0.0211,-0.0216,-0.022,0.3217,0.3214,0.3203,0.3173,0.3135,0.3151,0.3128,0.305,0.3011,0.3015,0.3029,0.28,0.2581,0.2464,0.2104,0.1819,0.1832,0.1666,0.1451,0.1499,0.2222,0.202,0.1539,0.1539,0.1539,0.154,0.154,0.154,0.3291,0.3265,0.328,0.3257,0.3258,0.323,0.3173,0.3219,0.324,0.3258,0.343,0.339,0.3306,0.3354,0.3351,0.298,0.3204,0.2777,0.2725,0.2732,0.251,0.3264,0.3187,0.3191,0.3195,0.3198,0.3201,0,0.3346,0.3344,0.3343,0.3334,0.3331,0.3308,0.3335,0.335,0.346,0.3522,0.362,0.3686,0.3809,0.3737,0.3841,0.3868,0.3684,0.3905,0.3606,0.2847,0.2655,0.2587,0.3505,0.3519,0.3525,0.353,0.3533,0.3536,0.3423,0.3409,0.3408,0.3404,0.3396,0.34,0.3414,0.3492,0.3529,0.3687,0.3724,0.3885,0.3947,0.4174,0.4198,0.4297,0.4136,0.4054,0.3897,0.3494,0.3381,0.3318,0.3263,0.3603,0.3595,0.3588,0.3582,0,0.3456,0.3474,0.3453,0.3476,0.3477,0.3476,0.3502,0.3539,0.3637,0.3703,0.3747,0.3916,0.4063,0.4198,0.4405,0.4394,0.4283,0.4475,0.4094,0.4039,0.3552,0.3449,0.3344,0.3269,0.4388,0.4385,0.4383,0,0.3504,0.3489,0.3499,0.3487,0.3497,0.3527,0.3554,0.3605,0.3691,0.3727,0.3832,0.39,0.4072,0.4197,0.427,0.4333,0.4468,0.4281,0.4277,0.3983,0.394,0.3653,0.3533,0.45,0.4499,0.4498,0.4496,0,0.3524,0.3502,0.3506,0.35,0.3517,0.3531,0.3556,0.3617,0.3635,0.3754,0.3796,0.3932,0.3996,0.4122,0.4191,0.415,0.4396,0.4348,0.4238,0.4226,0.3977,0.3933,0.3721,0.4495,0.4494,0.4494,0.4493,0,0.3528,0.3511,0.3504,0.3516,0.3507,0.352,0.3573,0.3596,0.3666,0.3692,0.3759,0.3782,0.3897,0.3853,0.4046,0.3977,0.4027,0.4072,0.4079,0.3919,0.384,0.3674,0.3735,0.3392,0.4112,0.4109,0.4106,0,0.3569,0.3531,0.3502,0.3503,0.3483,0.3488,0.3521,0.3542,0.3562,0.3602,0.3639,0.3682,0.3647,0.3676,0.3756,0.3827,0.3906,0.3788,0.3961,0.3966,0.3799,0.3918,0.3588,0.3704,0.4067,0.4071,0.4074,0,0.3569,0.3512,0.3501,0.3486,0.3462,0.3452,0.3483,0.349,0.3515,0.3513,0.3559,0.3592,0.3596,0.3612,0.3608,0.3687,0.3835,0.3677,0.3681,0.3738,0.4055,0.3883,0.3893,0.3858,0.3863,0.3867,0.4043,0,0.3571,0.3524,0.3512,0.3448,0.3446,0.3441,0.3415,0.3421,0.3409,0.3397,0.3446,0.3453,0.3481,0.3481,0.347,0.3581,0.3574,0.3559,0.3529,0.3621,0.368,0.3705,0.3394,0.3393,0.3392,0.3391,0,0,0.3586,0.3504,0.3445,0.3408,0.34,0.3372,0.3362,0.3353,0.3323,0.3328,0.3308,0.3344,0.3336,0.3402,0.3423,0.3412,0.3462,0.3393,0.3559,0.3577,0.3595,0.3657,0.3682,0.3389,0.3389,0.3388,0.3388,0,0.355,0.3475,0.344,0.3415,0.3371,0.3349,0.335,0.3293,0.3282,0.3292,0.3273,0.3302,0.3295,0.3312,0.3323,0.3392,0.3394,0.3384,0.3443,0.3546,0.3566,0.3584,0.3648,0.3672,0.3385,0.3386,0.3386,0,0.3524,0.3455,0.3433,0.3345,0.3315,0.3298,0.3254,0.3244,0.3246,0.3209,0.3206,0.3208,0.3214,0.3244,0.3257,0.3235,0.3347,0.3271,0.3277,0.3295,0.34,0.3422,0.3442,0.319,0.319,0.3189,0,0,0.3499,0.3449,0.3369,0.333,0.3307,0.3261,0.325,0.323,0.3211,0.3207,0.3182,0.3179,0.3198,0.3202,0.3207,0.3231,0.3267,0.3248,0.3257,0.3265,0.3286,0.3392,0.3414,0.3187,0.3187,0.3187,0,0,0.3499,0.3389,0.3356,0.3285,0.3265,0.3208,0.321,0.3185,0.3181,0.3182,0.315,0.3148,0.3181,0.3167,0.314,0.3189,0.3152,0.3157,0.3192,0.3203,0.3212,0.3235,0.3091,0,0,0,0,0,0.3436,0.3399,0.337,0.3349,0.3238,0.3215,0.3208,0.3175,0.3153,0.3163,0.3156,0.3124,0.3155,0.313,0.3128,0.315,0.3157,0.3162,0.3167,0.3218,0.323,0.3241,0,0,0,0,0,0,0.3427,0.3398,0.3372,0.3304,0.3281,0.3214,0.3173,0.3164,0.3152,0.3149,0.3126,0.3123,0.3102,0.3129,0.3127,0.3149,0.3091,0.3159,0.3163,0.3167,0.3222,0.3232,0.3241,0,0,0,0,0,0.342,0.3397,0.3214,0.3307,0.3286,0.3239,0.3173,0.3165,0.3156,0.3127,0.3122,0.3135,0.3103,0.3101,0.3127,0.3151,0.3092,0.3091,0.3162,0.3165,0.3168,0.3227,0,0,0,0,0,0,0.3415,0.3399,0.3211,0.3206,0.3309,0.3244,0.3226,0.3166,0.3134,0.3129,0.3135,0.3133,0.3103,0.3101,0.31,0.3154,0.3093,0.3092,0.3092,0.3164,0.3167,0.317,0,0,0,0,0,0,0.3413,0.3395,0.3208,0.3212,0.3207,0.3249,0.3233,0.3228,0.3136,0.3144,0.3141,0.3135,0.3118,0.3102,0.3101,0.3093,0.3093,0.3093,0.3093,0.3092,0.3167,0.3169,0,0,0,0,0,0,0.3406,0.3391,0.3212,0.3209,0.3205,0.315,0.3248,0.3142,0.3115,0.3147,0.3114,0.3114,0.312,0.3118,0.3101,0.3094,0.3094,0.3093,0.3093,0.3093,0.3093,0,0,0,0,0,0,0,0.34,0.3493,0.324,0.3207,0.3203,0.3164,0.3162,0.3161,0.3115,0.3115,0.3114,0.3114,0.3096,0.3096,0.3095,0.3095,0,0,0.3093,0.3093,0,0,0,0,0,0,0,0,0.35,0.3495,0.324,0.3239,0.3238,0.3164,0.3162,0.3161,0.3115,0.3115,0.3114,0.3114,0.3096,0.3096,0.3095,0,0,0,0,0,0,0,0,0,0,0,0,0,0,0,0.3239,0.3239,0,0.3163,0.3163,0.3162,0.3115,0.3115,0.3115,0.3114,0.3096,0.3096,0.3095,0,0,0,0,0,0,0,0,0,0,0,0,0,0,0,0,0,0,0,0,0,0,0,0,0,0,0,0,0,0,0,0,0,0,0,0,0,0,0,0,0,0,0,0,0,0,0,0,0,0,0,0,0,0,0,0,0,0,0,0,0,0,0,0,0,0,0,0,0]}],[{"header":{"parameterUnit":"kt","parameterCategory":2,"dx":1,"dy":1,"la1":30.253999710083008,"la2":30.299108505249023,"lo1":-89.0895004272461,"lo2":-89.04439544677734,"nx":28,"ny":28,"refTime":"2022-10-28T21:00:00:Z","depth":"0","parameterNumber":3,"parameterNumberName":"V-component_of_CURRENTS"},"data":[0.0827,0.0898,0.0936,0.1097,0.1169,0.1288,0.1386,0.156,0.1749,0.2019,0.2166,0.2292,0.2363,0.2261,0.2137,0.2045,0.1927,0.1865,0.1707,0.1794,0.1767,0.1741,0.1776,0.1991,0.1991,0.1844,0.1843,0.1842,0.0801,0.0849,0.0939,0.1035,0.114,0.1192,0.1389,0.1489,0.1723,0.1998,0.2175,0.2296,0.2306,0.2172,0.2,0.1813,0.1708,0.1697,0.1703,0.1676,0.1671,0.1712,0.1918,0.1918,0.1918,0.1918,0.1917,0.1917,0.0765,0.0803,0.0861,0.0947,0.1049,0.1191,0.1279,0.147,0.1679,0.1911,0.2004,0.2147,0.216,0.1882,0.1711,0.155,0.1368,0.1448,0.1367,0.1291,0.1309,0.1245,0.1352,0.135,0.1348,0.1346,0.1344,0,0.0719,0.073,0.079,0.0863,0.095,0.1074,0.1204,0.1305,0.1474,0.1625,0.1839,0.1925,0.1884,0.1836,0.1574,0.141,0.1203,0.1176,0.1208,0.1328,0.1276,0.1245,0.1138,0.1283,0.128,0.1278,0.1277,0.1275,0.0665,0.0693,0.0757,0.0812,0.0834,0.0945,0.1038,0.1139,0.1254,0.1467,0.1561,0.1637,0.1712,0.1585,0.1387,0.1184,0.1077,0.1127,0.1037,0.1076,0.0986,0.0914,0.0906,0.1246,0.125,0.1253,0.1255,0,0.063,0.0655,0.0716,0.0775,0.0805,0.0879,0.1009,0.1103,0.1188,0.1344,0.138,0.1452,0.1464,0.1335,0.1232,0.1074,0.0989,0.0906,0.1078,0.1073,0.1011,0.0946,0.099,0.0991,0.0835,0.0836,0.0836,0,0.0588,0.0631,0.067,0.0694,0.079,0.0832,0.0944,0.098,0.1085,0.1201,0.1169,0.1268,0.116,0.1151,0.1003,0.0926,0.0956,0.0769,0.0745,0.0886,0.0895,0.093,0.087,0.0765,0.0765,0.0765,0.0765,0,0.0547,0.0582,0.0648,0.0666,0.0731,0.0771,0.0819,0.0886,0.0955,0.1014,0.1075,0.1071,0.1108,0.102,0.0918,0.0866,0.0887,0.0799,0.0723,0.0721,0.0857,0.0864,0.103,0.0765,0.0765,0.0764,0.0764,0,0.0504,0.0519,0.0584,0.0646,0.0663,0.07,0.0795,0.0838,0.0887,0.0901,0.0922,0.0903,0.092,0.0827,0.0802,0.079,0.071,0.0661,0.066,0.0649,0.0577,0.076,0.0874,0.0921,0.0614,0.0613,0.0612,0,0.0477,0.0508,0.0501,0.0559,0.0588,0.0598,0.0648,0.0679,0.0692,0.0737,0.0711,0.0743,0.0656,0.067,0.0656,0.0622,0.0611,0.0582,0.0557,0.0557,0.0564,0.064,0.0811,0.085,0.0599,0.0601,0.0602,0,0.0449,0.0448,0.0445,0.0468,0.0481,0.0505,0.054,0.0573,0.0616,0.0591,0.065,0.0614,0.0597,0.0591,0.0551,0.055,0.0585,0.05,0.0499,0.0517,0.0616,0.062,0.0629,0.0563,0.0565,0.0567,0.0592,0,0.0439,0.0427,0.0431,0.0426,0.0443,0.0462,0.0463,0.0471,0.0466,0.0465,0.0489,0.0453,0.0461,0.0437,0.0407,0.0449,0.0428,0.0396,0.0373,0.0422,0.0422,0.043,0.0313,0.0312,0.031,0.0309,0,0,0.0414,0.0398,0.0364,0.0365,0.0382,0.036,0.0387,0.038,0.0371,0.0384,0.0353,0.0354,0.032,0.0356,0.0359,0.0333,0.0334,0.0337,0.0388,0.0397,0.0405,0.0409,0.0418,0.0307,0.0307,0.0306,0.0306,0,0.0402,0.0366,0.0359,0.0356,0.0345,0.0343,0.0348,0.0332,0.0328,0.0338,0.0311,0.0308,0.0289,0.0285,0.028,0.0315,0.029,0.0299,0.0364,0.0377,0.0387,0.0396,0.0402,0.0411,0.0303,0.0303,0.0303,0,0.0382,0.0355,0.0346,0.0316,0.0306,0.0318,0.0285,0.0288,0.0305,0.0259,0.027,0.0247,0.0226,0.0234,0.0234,0.0218,0.0255,0.0228,0.0233,0.0255,0.0267,0.0279,0.0289,0.0158,0.0158,0.0158,0,0,0.037,0.035,0.0325,0.0312,0.0307,0.0289,0.0284,0.0276,0.0266,0.0261,0.0241,0.0224,0.022,0.0216,0.0202,0.0208,0.0204,0.0213,0.022,0.0226,0.0251,0.0264,0.0275,0.0157,0.0157,0.0157,0,0,0.0373,0.0334,0.0317,0.0293,0.0288,0.0269,0.0268,0.0257,0.0247,0.0246,0.0217,0.0212,0.0218,0.0194,0.0189,0.0194,0.0162,0.0162,0.0219,0.0227,0.0234,0.0269,0.0153,0,0,0,0,0,0.0351,0.0339,0.0324,0.0317,0.0275,0.0273,0.027,0.025,0.0239,0.0242,0.0229,0.0204,0.0187,0.0182,0.0177,0.0194,0.0148,0.0149,0.0151,0.0225,0.0233,0.0241,0,0,0,0,0,0,0.0348,0.0338,0.0325,0.0302,0.0294,0.0273,0.0249,0.0244,0.0238,0.0236,0.0208,0.0203,0.0182,0.0182,0.0178,0.0195,0.0155,0.0148,0.015,0.0151,0.0228,0.0235,0.0241,0,0,0,0,0,0.0345,0.0338,0.0272,0.0303,0.0295,0.027,0.0249,0.0244,0.0238,0.021,0.0205,0.0225,0.0183,0.0178,0.0179,0.0198,0.0157,0.0156,0.0149,0.015,0.0151,0.0231,0,0,0,0,0,0,0.0344,0.0333,0.0271,0.0269,0.0302,0.0272,0.0264,0.0245,0.0212,0.0207,0.0226,0.0224,0.0183,0.018,0.0176,0.0201,0.0159,0.0158,0.0157,0.015,0.0151,0.0152,0,0,0,0,0,0,0.0337,0.0331,0.027,0.0269,0.0267,0.0273,0.0266,0.0253,0.0212,0.0229,0.0227,0.0226,0.019,0.0181,0.0178,0.0158,0.0161,0.0159,0.0159,0.0158,0.0151,0.0151,0,0,0,0,0,0,0.0335,0.0329,0.027,0.0268,0.0265,0.0237,0.0261,0.0219,0.0213,0.023,0.0212,0.0212,0.0192,0.0188,0.0179,0.0161,0.0159,0.0161,0.016,0.0159,0.0159,0,0,0,0,0,0,0,0.0332,0.037,0.0287,0.0266,0.0264,0.0248,0.0247,0.0247,0.0213,0.0213,0.0212,0.0212,0.0168,0.0167,0.0165,0.0163,0,0,0.0161,0.016,0,0,0,0,0,0,0,0,0.0372,0.037,0.0287,0.0287,0.0286,0.0248,0.0247,0.0247,0.0213,0.0213,0.0212,0.0212,0.0168,0.0167,0.0166,0,0,0,0,0,0,0,0,0,0,0,0,0,0,0,0.0287,0.0287,0,0.0248,0.0247,0.0247,0.0213,0.0213,0.0212,0.0212,0.0168,0.0167,0.0166,0,0,0,0,0,0,0,0,0,0,0,0,0,0,0,0,0,0,0,0,0,0,0,0,0,0,0,0,0,0,0,0,0,0,0,0,0,0,0,0,0,0,0,0,0,0,0,0,0,0,0,0,0,0,0,0,0,0,0,0,0,0,0,0,0,0,0,0,0]}]],[[{"header":{"parameterUnit":"kt","parameterCategory":2,"dx":1,"dy":1,"la1":30.253999710083008,"la2":30.299108505249023,"lo1":-89.0895004272461,"lo2":-89.04439544677734,"nx":28,"ny":28,"refTime":"2022-10-28T21:00:00:Z","depth":"2","parameterNumber":2,"parameterNumberName":"U-component_of_CURRENTS"},"data":[0.3276,0.3262,0.3258,0.3167,0.3122,0.2978,0.293,0.2867,0.2791,0.2589,0.2381,0.2401,0.2441,0.1967,0.1921,0.1746,0.2033,0.1675,0.273,0.2686,0.2751,0.2928,0.267,0,0,0,0,0,0.3297,0.3304,0.3301,0.3269,0.3223,0.3233,0.3212,0.3156,0.3129,0.3078,0.3059,0.2683,0.2548,0.2588,0.2377,0.2408,0.2375,0.2345,0.2246,0.2323,0.2392,0.217,0.1633,0.163,0.1626,0.1624,0,0,0.3365,0.335,0.3373,0.3344,0.3342,0.3312,0.3256,0.3308,0.3332,0.3345,0.3481,0.3398,0.3383,0.3254,0.3207,0.3178,0.3465,0.3321,0.3345,0.3379,0.321,0.307,0.2946,0.2952,0.2957,0.2961,0.2965,0,0.3419,0.3422,0.3424,0.3413,0.341,0.3388,0.3413,0.3427,0.3538,0.3598,0.3696,0.3761,0.3867,0.3736,0.3819,0.382,0.3939,0.3804,0.4491,0.3476,0.3338,0.3313,0.333,0.3296,0.3304,0.331,0.3314,0.3317,0.3502,0.3486,0.3488,0.3485,0.3472,0.3478,0.3491,0.3568,0.3604,0.3762,0.38,0.3969,0.403,0.4248,0.4242,0.4326,0.4473,0.3984,0.3816,0.4304,0.4283,0.4266,0.425,0.3401,0.339,0.3382,0.3375,0,0.3536,0.3554,0.3531,0.3552,0.3553,0.3555,0.3579,0.3615,0.3711,0.3776,0.382,0.3989,0.4143,0.4273,0.4474,0.4447,0.4545,0.4517,0.4034,0.3967,0.4284,0.4262,0.4435,0.4431,0.4427,0.4424,0.4421,0,0.3585,0.3567,0.3578,0.3564,0.3574,0.3606,0.3632,0.3678,0.3763,0.38,0.3903,0.3971,0.4141,0.4262,0.433,0.4386,0.4522,0.4331,0.4326,0.3944,0.3893,0.437,0.4347,0.4552,0.455,0.4549,0.4548,0,0.3602,0.3578,0.3582,0.358,0.3592,0.3605,0.3629,0.3689,0.3707,0.3823,0.3864,0.4001,0.4066,0.4188,0.4251,0.4212,0.445,0.4404,0.4289,0.4276,0.3941,0.3889,0.4546,0.4546,0.4546,0.4545,0.4545,0,0.3603,0.3578,0.3575,0.3584,0.3577,0.3591,0.3644,0.3667,0.3736,0.376,0.3828,0.3852,0.3967,0.3922,0.4111,0.4044,0.4089,0.4131,0.4138,0.3977,0.3898,0.3634,0.3669,0.4171,0.4167,0.4164,0.4162,0,0.3634,0.3595,0.3567,0.3571,0.3552,0.3557,0.359,0.361,0.3628,0.3669,0.3707,0.3752,0.3717,0.3745,0.3824,0.3892,0.3968,0.3852,0.4021,0.4026,0.3858,0.3973,0.3541,0.3643,0.4123,0.4127,0.413,0,0.3632,0.3575,0.3565,0.3549,0.3526,0.3521,0.3549,0.3555,0.3578,0.3579,0.3627,0.366,0.3665,0.3682,0.3677,0.3754,0.3898,0.3743,0.3747,0.3801,0.4113,0.3939,0.3949,0.392,0.3925,0.3929,0.4099,0,0.3628,0.3583,0.3572,0.3507,0.3509,0.3506,0.3481,0.3486,0.3473,0.3462,0.3512,0.352,0.3551,0.355,0.3538,0.3648,0.364,0.3626,0.3596,0.3687,0.3744,0.3768,0.3462,0.3461,0.346,0.3459,0,0,0.3635,0.356,0.3502,0.3466,0.3461,0.3432,0.3425,0.3416,0.3387,0.3392,0.3373,0.3412,0.3405,0.3471,0.3491,0.348,0.3529,0.3462,0.3626,0.3644,0.3661,0.3721,0.3745,0.3458,0.3457,0.3457,0.3457,0,0.3598,0.3532,0.3497,0.3476,0.3431,0.3409,0.341,0.3356,0.3345,0.3357,0.3338,0.3367,0.3364,0.3381,0.3392,0.346,0.3463,0.3453,0.3512,0.3613,0.3632,0.365,0.3712,0.3735,0.3454,0.3454,0.3454,0,0.357,0.3501,0.3484,0.3401,0.3374,0.336,0.3316,0.3307,0.331,0.3274,0.3273,0.3276,0.3283,0.3313,0.3327,0.3305,0.3417,0.3342,0.3348,0.3367,0.347,0.3492,0.3512,0.3263,0.3263,0.3262,0,0,0.3537,0.3491,0.3418,0.3387,0.3367,0.3323,0.3313,0.3293,0.3275,0.3272,0.3248,0.3247,0.3267,0.3271,0.3277,0.3302,0.3338,0.3319,0.3328,0.3336,0.3358,0.3463,0.3483,0.326,0.326,0.326,0,0,0.3536,0.3433,0.3404,0.3343,0.3325,0.3272,0.3274,0.3249,0.3247,0.3248,0.3217,0.3216,0.3249,0.3236,0.321,0.326,0.3224,0.3229,0.3262,0.3273,0.3282,0.3306,0.3162,0,0,0,0,0,0.3473,0.3443,0.3416,0.3398,0.3299,0.3279,0.3272,0.3241,0.3218,0.3228,0.3222,0.3191,0.3225,0.32,0.3198,0.322,0.323,0.3235,0.324,0.329,0.3301,0.3311,0,0,0,0,0,0,0.3465,0.3439,0.3418,0.3355,0.3334,0.3277,0.3237,0.3228,0.3217,0.3214,0.3193,0.319,0.3171,0.3198,0.3197,0.3219,0.3162,0.3232,0.3237,0.3241,0.3294,0.3303,0.3312,0,0,0,0,0,0.3459,0.3438,0.3277,0.3357,0.3339,0.3294,0.3237,0.323,0.3221,0.3194,0.319,0.32,0.3171,0.317,0.3197,0.3221,0.3163,0.3162,0.3235,0.3239,0.3242,0.3298,0,0,0,0,0,0,0.3454,0.3439,0.3274,0.3269,0.3359,0.3299,0.3283,0.3231,0.3201,0.3196,0.32,0.3198,0.3172,0.317,0.3169,0.3224,0.3163,0.3163,0.3163,0.3238,0.324,0.3243,0,0,0,0,0,0,0.3451,0.3435,0.3271,0.3274,0.3269,0.3303,0.3289,0.3285,0.3203,0.3209,0.3206,0.32,0.3186,0.3171,0.317,0.3165,0.3164,0.3163,0.3163,0.3163,0.324,0.3242,0,0,0,0,0,0,0.3445,0.3431,0.3275,0.3271,0.3267,0.3215,0.3303,0.321,0.3181,0.3212,0.3181,0.3181,0.3188,0.3186,0.317,0.3166,0.3166,0.3164,0.3163,0.3163,0.3163,0,0,0,0,0,0,0,0.344,0.3523,0.3301,0.3269,0.3266,0.3229,0.3228,0.3226,0.3181,0.3181,0.3181,0.3181,0.3166,0.3165,0.3165,0.3167,0,0,0.3164,0.3163,0,0,0,0,0,0,0,0,0.353,0.3525,0.3301,0.33,0.33,0.3229,0.3228,0.3227,0.3181,0.3181,0.3181,0.3181,0.3166,0.3165,0.3165,0,0,0,0,0,0,0,0,0,0,0,0,0,0,0,0.3301,0.33,0,0.3229,0.3228,0.3227,0.3181,0.3181,0.3181,0.3181,0.3165,0.3165,0.3165,0,0,0,0,0,0,0,0,0,0,0,0,0,0,0,0,0,0,0,0,0,0,0,0,0,0,0,0,0,0,0,0,0,0,0,0,0,0,0,0,0,0,0,0,0,0,0,0,0,0,0,0,0,0,0,0,0,0,0,0,0,0,0,0,0,0,0,0,0]}],[{"header":{"parameterUnit":"kt","parameterCategory":2,"dx":1,"dy":1,"la1":30.253999710083008,"la2":30.299108505249023,"lo1":-89.0895004272461,"lo2":-89.04439544677734,"nx":28,"ny":28,"refTime":"2022-10-28T21:00:00:Z","depth":"2","parameterNumber":3,"parameterNumberName":"V-component_of_CURRENTS"},"data":[0.0617,0.0665,0.0695,0.0878,0.1032,0.1166,0.1259,0.1324,0.1368,0.134,0.133,0.1341,0.1191,0.0851,0.0623,0.0413,0.0391,0.0351,0.059,0.0571,0.0581,0.0471,0.0444,0,0,0,0,0,0.0612,0.0639,0.0733,0.089,0.1012,0.1093,0.1288,0.132,0.1516,0.1613,0.1707,0.1439,0.1242,0.1021,0.069,0.0503,0.0461,0.0372,0.0328,0.0339,0.0348,0.032,0.0242,0.0241,0.024,0.0238,0,0,0.0584,0.061,0.0669,0.0812,0.0932,0.1092,0.1178,0.1358,0.1547,0.167,0.179,0.177,0.1587,0.117,0.095,0.0718,0.0764,0.0549,0.0551,0.0554,0.0539,0.0523,0.0517,0.0518,0.0519,0.052,0.052,0,0.0559,0.0553,0.0618,0.0751,0.0843,0.0973,0.1109,0.1209,0.1374,0.1508,0.1709,0.1744,0.1644,0.1425,0.1127,0.0953,0.0741,0.0682,0.0794,0.0532,0.0515,0.0482,0.0481,0.0511,0.0512,0.0513,0.0513,0.0514,0.0519,0.0551,0.0624,0.0686,0.0727,0.0843,0.094,0.1043,0.1157,0.1363,0.1454,0.151,0.1534,0.1386,0.1179,0.0956,0.0878,0.0708,0.0596,0.0659,0.0627,0.062,0.0614,0.0523,0.0522,0.0521,0.052,0,0.0474,0.0504,0.0577,0.066,0.0694,0.077,0.0908,0.1002,0.1089,0.1244,0.128,0.1347,0.1339,0.1204,0.1092,0.0942,0.0824,0.0761,0.0695,0.0662,0.0617,0.0611,0.0679,0.0679,0.0679,0.068,0.068,0,0.0424,0.0478,0.0525,0.0569,0.0673,0.0718,0.0838,0.0878,0.0985,0.1101,0.1071,0.1167,0.1058,0.1041,0.0892,0.0802,0.0836,0.0644,0.0619,0.0553,0.0545,0.0569,0.056,0.0653,0.0652,0.0652,0.0652,0,0.0378,0.043,0.0506,0.0527,0.0616,0.0659,0.0713,0.0785,0.0856,0.0917,0.0979,0.0973,0.101,0.0919,0.0811,0.0764,0.077,0.0691,0.0602,0.06,0.053,0.0519,0.0652,0.0652,0.0652,0.0652,0.0652,0,0.0338,0.0377,0.0448,0.0528,0.0547,0.0587,0.0692,0.0736,0.0789,0.0806,0.0829,0.0811,0.0824,0.0735,0.0703,0.0694,0.0613,0.0562,0.0561,0.0537,0.0468,0.0427,0.048,0.0514,0.0513,0.0512,0.0512,0,0.0321,0.0359,0.0366,0.0435,0.0473,0.0488,0.0542,0.0577,0.0597,0.0644,0.062,0.0653,0.0569,0.0584,0.0568,0.0531,0.0518,0.0493,0.0463,0.0462,0.0457,0.0526,0.0458,0.0469,0.0501,0.0502,0.0503,0,0.0291,0.0313,0.0314,0.0344,0.0369,0.0395,0.0434,0.0477,0.0521,0.0499,0.056,0.0527,0.0512,0.0506,0.0468,0.0464,0.0494,0.0415,0.0413,0.0428,0.0519,0.051,0.0516,0.0473,0.0475,0.0476,0.0494,0,0.0278,0.0289,0.0297,0.0311,0.0331,0.0354,0.0362,0.0374,0.0376,0.0378,0.0404,0.037,0.038,0.0357,0.0328,0.0367,0.0346,0.0315,0.0292,0.0339,0.0336,0.0344,0.0237,0.0236,0.0235,0.0234,0,0,0.0252,0.0264,0.0248,0.0252,0.0272,0.0262,0.0292,0.0289,0.0284,0.0299,0.0271,0.0275,0.0243,0.0278,0.0281,0.0257,0.0255,0.0259,0.0307,0.0315,0.0323,0.0324,0.0332,0.0231,0.0231,0.0231,0.023,0,0.0245,0.0235,0.0243,0.0242,0.0241,0.0246,0.0252,0.0244,0.0242,0.0255,0.023,0.0229,0.0213,0.0208,0.0204,0.0239,0.0213,0.0224,0.0286,0.0296,0.0306,0.0314,0.0317,0.0326,0.0227,0.0228,0.0228,0,0.0224,0.0215,0.0221,0.0213,0.0209,0.0225,0.0196,0.0203,0.0221,0.0178,0.0191,0.017,0.0151,0.016,0.016,0.0144,0.0179,0.0154,0.0159,0.018,0.0189,0.02,0.021,0.0085,0.0085,0.0085,0,0,0.0212,0.0215,0.0207,0.0211,0.0209,0.0198,0.0195,0.019,0.0184,0.018,0.0163,0.0148,0.0144,0.0141,0.0128,0.0134,0.0129,0.0139,0.0146,0.0152,0.0175,0.0186,0.0196,0.0084,0.0084,0.0084,0,0,0.0211,0.0203,0.0197,0.0196,0.0196,0.0183,0.0183,0.0175,0.0167,0.0167,0.014,0.0135,0.0143,0.012,0.0115,0.012,0.0089,0.0089,0.0145,0.0153,0.0159,0.0192,0.008,0,0,0,0,0,0.0204,0.0206,0.02,0.0199,0.0184,0.0187,0.0184,0.0168,0.0158,0.0162,0.0151,0.0127,0.0113,0.0108,0.0103,0.0119,0.0075,0.0077,0.0079,0.0151,0.0159,0.0166,0,0,0,0,0,0,0.0204,0.0202,0.02,0.0188,0.0185,0.0186,0.0165,0.016,0.0158,0.0156,0.0131,0.0126,0.0106,0.0108,0.0104,0.0121,0.0081,0.0076,0.0077,0.0079,0.0153,0.016,0.0166,0,0,0,0,0,0.0203,0.0202,0.0184,0.0187,0.0184,0.0166,0.0164,0.016,0.0157,0.0131,0.0126,0.0147,0.0107,0.0103,0.0105,0.0123,0.0084,0.0082,0.0077,0.0078,0.0079,0.0157,0,0,0,0,0,0,0.0203,0.0193,0.0182,0.018,0.0187,0.0166,0.0162,0.0161,0.0132,0.0128,0.0146,0.0144,0.0107,0.0104,0.0101,0.0126,0.0086,0.0084,0.0083,0.0078,0.0079,0.0079,0,0,0,0,0,0,0.0193,0.0191,0.0181,0.0182,0.0179,0.0165,0.0162,0.015,0.0132,0.0147,0.0146,0.0146,0.0113,0.0105,0.0102,0.0083,0.0087,0.0086,0.0085,0.0084,0.0078,0.0079,0,0,0,0,0,0,0.0192,0.019,0.0182,0.018,0.0178,0.0155,0.0153,0.0138,0.0135,0.0149,0.0134,0.0134,0.0115,0.0112,0.0103,0.0085,0.0084,0.0087,0.0086,0.0086,0.0085,0,0,0,0,0,0,0,0.0191,0.0209,0.0196,0.0179,0.0177,0.0164,0.0164,0.0163,0.0134,0.0134,0.0134,0.0134,0.0094,0.0093,0.0091,0.0087,0,0,0.0087,0.0086,0,0,0,0,0,0,0,0,0.0209,0.0209,0.0196,0.0196,0.0195,0.0164,0.0164,0.0163,0.0134,0.0134,0.0134,0.0134,0.0094,0.0093,0.0092,0,0,0,0,0,0,0,0,0,0,0,0,0,0,0,0.0196,0.0196,0,0.0164,0.0164,0.0163,0.0134,0.0134,0.0134,0.0134,0.0093,0.0093,0.0092,0,0,0,0,0,0,0,0,0,0,0,0,0,0,0,0,0,0,0,0,0,0,0,0,0,0,0,0,0,0,0,0,0,0,0,0,0,0,0,0,0,0,0,0,0,0,0,0,0,0,0,0,0,0,0,0,0,0,0,0,0,0,0,0,0,0,0,0,0]}]],[[{"header":{"parameterUnit":"kt","parameterCategory":2,"dx":1,"dy":1,"la1":30.253999710083008,"la2":30.299108505249023,"lo1":-89.0895004272461,"lo2":-89.04439544677734,"nx":28,"ny":28,"refTime":"2022-10-28T21:00:00:Z","depth":"4","parameterNumber":2,"parameterNumberName":"U-component_of_CURRENTS"},"data":[0.1446,0.1462,0.1443,0.1344,0.1317,0.133,0.1382,0.1497,0.1475,0.1688,0.1738,0.1941,0.2063,0.2158,0.2214,0.2257,0.232,0.2614,0.2609,0.2815,0.2838,0.2859,0.2713,0,0,0,0,0,0.1496,0.1474,0.1492,0.1477,0.1519,0.1558,0.1652,0.172,0.1903,0.1858,0.1978,0.2064,0.2177,0.226,0.2258,0.2481,0.2671,0.247,0.2633,0.283,0.2855,0.2705,0,0,0,0,0,0,0.1552,0.1552,0.1606,0.1638,0.1693,0.1672,0.1742,0.179,0.1859,0.2109,0.2099,0.2299,0.2475,0.251,0.2592,0.2645,0.2643,0.2592,0.2628,0.2655,0.2496,0.2344,0.2191,0,0,0,0,0,0.1594,0.1653,0.1692,0.1749,0.181,0.1852,0.1958,0.1973,0.2152,0.2336,0.2365,0.2446,0.2552,0.2655,0.2745,0.2822,0.3071,0.3013,0.3028,0.2995,0.2918,0.2902,0.2904,0.2953,0.2956,0.2958,0.2959,0,0.1656,0.1679,0.1799,0.1826,0.1902,0.2007,0.2058,0.2224,0.2276,0.2494,0.2512,0.2695,0.2796,0.2812,0.2985,0.3096,0.3073,0.308,0.3044,0.2959,0.2937,0.2933,0.2927,0.298,0.2978,0.2977,0.2975,0,0.1701,0.1761,0.1813,0.1939,0.1989,0.2045,0.2199,0.2254,0.2422,0.2533,0.26,0.277,0.2897,0.3045,0.3208,0.3165,0.3214,0.3174,0.3326,0.3314,0.2972,0.2958,0.3014,0.3006,0.3,0.2995,0.299,0,0.1771,0.182,0.1925,0.1956,0.2018,0.211,0.2207,0.2305,0.2446,0.2526,0.2699,0.276,0.2972,0.3076,0.3157,0.3166,0.3314,0.3123,0.3105,0.327,0.3256,0.3265,0.3248,0.3398,0.3397,0.3396,0.3396,0,0.1809,0.1908,0.1935,0.1967,0.2064,0.2129,0.2197,0.2327,0.2397,0.2578,0.2657,0.2816,0.2918,0.3032,0.3132,0.3127,0.3284,0.3279,0.3106,0.309,0.3254,0.3239,0.3395,0.3395,0.3395,0.3394,0.3394,0,0.1875,0.1922,0.1963,0.2047,0.2071,0.2121,0.2229,0.2293,0.2442,0.2521,0.2651,0.2732,0.2876,0.2877,0.3055,0.3012,0.307,0.311,0.3114,0.2884,0.2816,0.2993,0.3126,0.3123,0.3121,0.3119,0.3117,0,0.1879,0.1936,0.1987,0.2047,0.207,0.2147,0.2202,0.2283,0.2372,0.2477,0.2576,0.2679,0.2707,0.2774,0.2852,0.2925,0.2993,0.2916,0.3023,0.3026,0.2791,0.2861,0.2984,0.3087,0.3091,0.3094,0.3096,0,0.1872,0.196,0.1985,0.2019,0.2096,0.2121,0.2191,0.2263,0.233,0.2427,0.2517,0.262,0.2683,0.2716,0.2752,0.2823,0.2944,0.2834,0.2836,0.2856,0.3094,0.2853,0.2848,0.2966,0.297,0.2973,0.3075,0,0.1886,0.1945,0.1973,0.2044,0.2078,0.2116,0.217,0.2232,0.2293,0.2342,0.2457,0.2512,0.2597,0.2625,0.2637,0.2751,0.2743,0.2733,0.2705,0.2787,0.2817,0.2834,0.262,0.2619,0.2618,0.2618,0,0,0.1874,0.192,0.1975,0.2021,0.205,0.21,0.2125,0.217,0.2238,0.2286,0.2308,0.2435,0.2469,0.2547,0.259,0.2595,0.2629,0.2606,0.274,0.2754,0.2767,0.28,0.2817,0.2616,0.2616,0.2615,0.2615,0,0.1868,0.1929,0.1963,0.2003,0.2068,0.2083,0.2106,0.2158,0.2204,0.2267,0.2293,0.2367,0.243,0.2469,0.2493,0.2574,0.2587,0.2599,0.2658,0.273,0.2745,0.2758,0.2794,0.281,0.2613,0.2613,0.2613,0,0.1859,0.1904,0.1925,0.1989,0.2026,0.2053,0.2073,0.2123,0.2155,0.217,0.2248,0.2286,0.232,0.2388,0.2425,0.2411,0.2547,0.2495,0.2501,0.2509,0.2581,0.2598,0.2613,0.2416,0.2416,0.2415,0,0,0.1862,0.1907,0.1946,0.1987,0.2012,0.2051,0.2076,0.2103,0.2142,0.217,0.221,0.2258,0.2299,0.2335,0.2365,0.2423,0.244,0.2471,0.248,0.2488,0.2499,0.2573,0.259,0.2412,0.2412,0.2412,0,0,0.1852,0.1907,0.1935,0.1978,0.2016,0.2041,0.2075,0.2098,0.215,0.2171,0.2192,0.2204,0.2278,0.2289,0.2252,0.2374,0.2337,0.2345,0.2366,0.2378,0.2387,0.2392,0.2243,0,0,0,0,0,0.187,0.1896,0.1921,0.1933,0.1994,0.2026,0.2034,0.2077,0.2102,0.2131,0.2171,0.2174,0.2283,0.2249,0.2255,0.2311,0.2378,0.2384,0.239,0.2431,0.2443,0.2453,0,0,0,0,0,0,0.1875,0.1889,0.1919,0.1944,0.1958,0.2025,0.2037,0.2048,0.2101,0.2109,0.2165,0.2174,0.2181,0.2246,0.2252,0.2305,0.2241,0.2381,0.2386,0.239,0.2435,0.2445,0.2454,0,0,0,0,0,0.1879,0.189,0.1985,0.1943,0.1956,0.2012,0.2038,0.2048,0.21,0.2121,0.2133,0.2139,0.2179,0.2189,0.2249,0.2303,0.2237,0.224,0.2384,0.2388,0.2392,0.244,0,0,0,0,0,0,0.1882,0.1892,0.1988,0.1992,0.1958,0.2011,0.2023,0.2048,0.2111,0.2122,0.2092,0.2097,0.2177,0.2185,0.2192,0.2303,0.2234,0.2236,0.2238,0.2387,0.239,0.2393,0,0,0,0,0,0,0.1886,0.1895,0.199,0.2006,0.2013,0.201,0.2021,0.2038,0.2112,0.2078,0.2084,0.2093,0.2175,0.2182,0.2188,0.2212,0.2231,0.2234,0.2235,0.2236,0.239,0.2392,0,0,0,0,0,0,0.189,0.1898,0.2005,0.201,0.2016,0.2067,0.2026,0.2093,0.2111,0.2075,0.2116,0.2118,0.2172,0.2178,0.2185,0.2206,0.221,0.2232,0.2233,0.2234,0.2235,0,0,0,0,0,0,0,0.1893,0.1836,0.1964,0.2014,0.2019,0.2033,0.2034,0.2035,0.2112,0.2114,0.2115,0.2117,0.2219,0.2222,0.2224,0.2201,0,0,0.2231,0.2232,0,0,0,0,0,0,0,0,0.1833,0.1835,0.1964,0.1965,0.1966,0.2033,0.2034,0.2035,0.2112,0.2113,0.2115,0.2116,0.222,0.2222,0.2224,0,0,0,0,0,0,0,0,0,0,0,0,0,0,0,0.1964,0.1965,0,0.2033,0.2034,0.2034,0.2112,0.2113,0.2115,0.2116,0.222,0.2222,0.2224,0,0,0,0,0,0,0,0,0,0,0,0,0,0,0,0,0,0,0,0,0,0,0,0,0,0,0,0,0,0,0,0,0,0,0,0,0,0,0,0,0,0,0,0,0,0,0,0,0,0,0,0,0,0,0,0,0,0,0,0,0,0,0,0,0,0,0,0,0]}],[{"header":{"parameterUnit":"kt","parameterCategory":2,"dx":1,"dy":1,"la1":30.253999710083008,"la2":30.299108505249023,"lo1":-89.0895004272461,"lo2":-89.04439544677734,"nx":28,"ny":28,"refTime":"2022-10-28T21:00:00:Z","depth":"4","parameterNumber":3,"parameterNumberName":"V-component_of_CURRENTS"},"data":[-0.0141,-0.0119,-0.0108,-0.0038,0.0002,0.0084,0.0155,0.025,0.0311,0.0433,0.0403,0.0457,0.0381,0.052,0.0328,0.0305,0.0185,0.0182,0.0178,0.0009,0.0008,0.0007,0.0058,0,0,0,0,0,-0.015,-0.0135,-0.0108,-0.0042,0.0004,0.0051,0.0166,0.0223,0.0359,0.0457,0.051,0.0527,0.0465,0.0435,0.0343,0.0314,0.0157,0.0193,0.0046,0.0008,0.0007,0.0057,0,0,0,0,0,0,-0.0169,-0.0155,-0.0119,-0.0065,-0.0012,0.0071,0.0123,0.0238,0.0323,0.0504,0.0536,0.0573,0.0585,0.0455,0.0354,0.0256,0.0215,0.0132,0.0124,0.0122,0.018,0.0201,0.0221,0,0,0,0,0,-0.0167,-0.0154,-0.0123,-0.0071,-0.0016,0.0055,0.0144,0.0201,0.033,0.04,0.053,0.0524,0.0522,0.0422,0.0317,0.0201,0.0071,0.0042,0.004,0.0028,0.0029,0.0017,0.0018,0.0002,0.0002,0.0002,0.0002,0,-0.0168,-0.0151,-0.0088,-0.0063,-0.0029,0.0035,0.0082,0.017,0.0242,0.0392,0.0441,0.0483,0.0505,0.0391,0.0291,0.014,0.0115,0.0039,0.0027,0.0028,0.0015,0.0017,0.0018,0.0001,0.0001,0.0001,0.0001,0,-0.0161,-0.0143,-0.0097,-0.0036,-0.0008,0.0029,0.0121,0.0174,0.0243,0.0342,0.0366,0.0415,0.0408,0.0334,0.0241,0.0162,0.008,0.0051,0.0058,0.0044,0.0015,0.0017,-0.0001,-0.0001,-0.0,-0.0,0.0,0,-0.0156,-0.0122,-0.0081,-0.0061,-0.0006,0.0032,0.01,0.0147,0.0211,0.0288,0.0305,0.0356,0.0289,0.0265,0.0183,0.0121,0.0117,0.0056,0.0041,0.0046,0.0047,0.0027,0.0027,0.0037,0.0037,0.0038,0.0038,0,-0.0171,-0.0108,-0.0084,-0.0066,-0.0007,0.0029,0.0064,0.0126,0.0178,0.0234,0.0277,0.0269,0.0281,0.022,0.017,0.016,0.0105,0.0084,0.0049,0.0048,0.003,0.0029,0.0039,0.0039,0.0039,0.0039,0.0039,0,-0.0166,-0.0139,-0.0106,-0.0041,-0.0023,0.0002,0.0075,0.0109,0.0166,0.0194,0.0218,0.0226,0.023,0.0198,0.0156,0.0168,0.012,0.0086,0.0083,0.0089,0.0068,0.0011,0.003,0.003,0.0031,0.0031,0.0031,0,-0.0186,-0.015,-0.0125,-0.0079,-0.0049,-0.0019,0.0015,0.0057,0.0094,0.0135,0.014,0.0171,0.0149,0.0159,0.0146,0.0124,0.0103,0.0122,0.0053,0.0051,0.0064,0.0087,0.0102,0.0036,0.0035,0.0035,0.0034,0,-0.0196,-0.0154,-0.0146,-0.0116,-0.0084,-0.0063,-0.0027,0.0023,0.0063,0.0071,0.0112,0.0125,0.0124,0.013,0.0126,0.0116,0.0106,0.0093,0.0091,0.0061,0.0068,0.0088,0.0087,0.0102,0.0102,0.0102,0.0038,0,-0.0192,-0.0161,-0.0154,-0.011,-0.0095,-0.008,-0.0044,-0.0021,-0.0005,0.0019,0.005,0.0047,0.0067,0.0068,0.0067,0.0085,0.0063,0.0059,0.0041,0.0063,0.0031,0.0029,0.0045,0.0044,0.0044,0.0043,0,0,-0.0197,-0.0163,-0.0143,-0.0119,-0.0104,-0.0094,-0.0071,-0.0052,-0.0031,-0.0007,-0.0019,0.0008,0.0006,0.0037,0.0049,0.0045,0.0026,0.004,0.0055,0.0057,0.0058,0.0028,0.0027,0.0042,0.0042,0.0042,0.0041,0,-0.0185,-0.016,-0.0143,-0.0126,-0.0105,-0.0091,-0.0087,-0.0064,-0.0047,-0.0029,-0.0026,-0.0017,-0.0009,0.0004,0.001,0.0036,0.0007,0.0036,0.006,0.0051,0.0053,0.0055,0.0026,0.0025,0.004,0.004,0.004,0,-0.0173,-0.0149,-0.0142,-0.0105,-0.0096,-0.0076,-0.0075,-0.0069,-0.0048,-0.0061,-0.0038,-0.004,-0.0037,-0.0021,-0.0017,-0.0025,-0.0014,-0.001,-0.0007,-0.0007,-0.0019,-0.0016,-0.0013,-0.0049,-0.0049,-0.005,0,0,-0.016,-0.0142,-0.011,-0.01,-0.0088,-0.0076,-0.0074,-0.0067,-0.0059,-0.0057,-0.0053,-0.005,-0.0042,-0.004,-0.0038,-0.003,-0.0048,-0.002,-0.0016,-0.0012,-0.0011,-0.0021,-0.0018,-0.005,-0.005,-0.005,0,0,-0.0161,-0.0122,-0.0111,-0.0088,-0.0076,-0.0063,-0.0066,-0.0059,-0.0054,-0.0056,-0.0057,-0.0058,-0.0048,-0.0055,-0.0064,-0.004,-0.0058,-0.0057,-0.0033,-0.0028,-0.0024,-0.0022,-0.0077,0,0,0,0,0,-0.0136,-0.0124,-0.0114,-0.0108,-0.0076,-0.0064,-0.0062,-0.0058,-0.0059,-0.0056,-0.0053,-0.0063,-0.0054,-0.0063,-0.0065,-0.0051,-0.0061,-0.0059,-0.0057,-0.0025,-0.002,-0.0015,0,0,0,0,0,0,-0.0133,-0.0124,-0.0115,-0.0098,-0.0091,-0.0064,-0.0063,-0.0062,-0.0059,-0.0058,-0.0062,-0.0063,-0.0066,-0.0063,-0.0065,-0.005,-0.0076,-0.006,-0.0059,-0.0057,-0.0023,-0.0019,-0.0015,0,0,0,0,0,-0.0131,-0.0124,-0.0068,-0.0099,-0.0093,-0.0086,-0.0063,-0.0062,-0.0059,-0.0063,-0.0064,-0.0057,-0.0066,-0.0068,-0.0064,-0.0049,-0.0075,-0.0076,-0.0059,-0.0058,-0.0057,-0.0021,0,0,0,0,0,0,-0.013,-0.0127,-0.0068,-0.0067,-0.01,-0.0088,-0.0083,-0.0062,-0.0064,-0.0064,-0.0058,-0.0058,-0.0066,-0.0067,-0.0068,-0.0047,-0.0074,-0.0075,-0.0075,-0.0058,-0.0057,-0.0056,0,0,0,0,0,0,-0.0132,-0.0126,-0.0067,-0.0069,-0.0068,-0.009,-0.0085,-0.009,-0.0065,-0.0059,-0.0059,-0.0058,-0.007,-0.0067,-0.0068,-0.0076,-0.0074,-0.0074,-0.0075,-0.0075,-0.0057,-0.0057,0,0,0,0,0,0,-0.013,-0.0125,-0.0069,-0.0068,-0.0068,-0.006,-0.0096,-0.0067,-0.0055,-0.0059,-0.0055,-0.0055,-0.007,-0.0071,-0.0067,-0.0075,-0.0076,-0.0074,-0.0074,-0.0074,-0.0074,0,0,0,0,0,0,0,-0.0128,-0.0153,-0.0072,-0.0068,-0.0068,-0.0061,-0.0061,-0.0061,-0.0055,-0.0055,-0.0055,-0.0055,-0.0071,-0.0071,-0.0072,-0.0074,0,0,-0.0074,-0.0074,0,0,0,0,0,0,0,0,-0.0155,-0.0153,-0.0072,-0.0072,-0.0072,-0.0061,-0.0061,-0.0061,-0.0055,-0.0055,-0.0055,-0.0055,-0.0071,-0.0071,-0.0072,0,0,0,0,0,0,0,0,0,0,0,0,0,0,0,-0.0072,-0.0072,0,-0.0061,-0.0061,-0.0061,-0.0055,-0.0055,-0.0055,-0.0055,-0.0071,-0.0071,-0.0072,0,0,0,0,0,0,0,0,0,0,0,0,0,0,0,0,0,0,0,0,0,0,0,0,0,0,0,0,0,0,0,0,0,0,0,0,0,0,0,0,0,0,0,0,0,0,0,0,0,0,0,0,0,0,0,0,0,0,0,0,0,0,0,0,0,0,0,0,0]}]]]